TimeEST,TemperatureF,Dew PointF,Humidity,Sea Level PressureIn,VisibilityMPH,Wind Direction,Wind SpeedMPH,Gust SpeedMPH,PrecipitationIn,Events,Conditions,WindDirDegrees,DateUTC
12:15 AM,37.4,30.2,75,30.25,10.0,SE,4.6,-,N/A,,Overcast,130,2013-01-06 05:15:00
12:35 AM,37.4,30.2,75,30.25,10.0,South,3.5,-,N/A,,Overcast,190,2013-01-06 05:35:00
12:55 AM,37.4,30.2,75,30.25,10.0,Calm,Calm,-,N/A,,Overcast,0,2013-01-06 05:55:00
1:15 AM,37.4,32.0,81,30.24,10.0,ESE,3.5,-,N/A,,Mostly Cloudy,120,2013-01-06 06:15:00
1:35 AM,37.4,32.0,81,30.24,10.0,Calm,Calm,-,N/A,,Mostly Cloudy,0,2013-01-06 06:35:00
1:55 AM,37.4,32.0,81,30.23,10.0,Calm,Calm,-,N/A,,Mostly Cloudy,0,2013-01-06 06:55:00
2:15 AM,37.4,32.0,81,30.23,10.0,Calm,Calm,-,N/A,,Light Drizzle,0,2013-01-06 07:15:00
2:35 AM,37.4,32.0,81,30.23,10.0,Calm,Calm,-,N/A,Snow,Light Snow,0,2013-01-06 07:35:00
2:55 AM,37.4,32.0,81,30.23,10.0,Calm,Calm,-,N/A,Snow,Light Snow,0,2013-01-06 07:55:00
3:15 AM,37.4,32.0,81,30.23,10.0,Calm,Calm,-,N/A,,Overcast,0,2013-01-06 08:15:00
3:35 AM,37.4,32.0,81,30.23,10.0,Calm,Calm,-,N/A,,Overcast,0,2013-01-06 08:35:00
3:55 AM,37.4,33.8,87,30.22,10.0,Calm,Calm,-,N/A,Rain,Light Rain,0,2013-01-06 08:55:00
4:15 AM,37.4,33.8,87,30.21,10.0,Calm,Calm,-,N/A,,Light Drizzle,0,2013-01-06 09:15:00
4:35 AM,37.4,33.8,87,30.19,10.0,Calm,Calm,-,N/A,Snow,Light Snow,0,2013-01-06 09:35:00
4:55 AM,37.4,33.8,87,30.19,10.0,Calm,Calm,-,N/A,,Overcast,0,2013-01-06 09:55:00
5:15 AM,37.4,33.8,87,30.18,10.0,Calm,Calm,-,N/A,,Overcast,0,2013-01-06 10:15:00
5:35 AM,37.4,33.8,87,30.18,10.0,ESE,3.5,-,N/A,,Scattered Clouds,120,2013-01-06 10:35:00
5:55 AM,37.4,33.8,87,30.19,10.0,Calm,Calm,-,N/A,,Scattered Clouds,0,2013-01-06 10:55:00
6:15 AM,37.4,33.8,87,30.19,10.0,Calm,Calm,-,N/A,,Mostly Cloudy,0,2013-01-06 11:15:00
6:35 AM,37.4,33.8,87,30.19,10.0,Calm,Calm,-,N/A,,Overcast,0,2013-01-06 11:35:00
6:55 AM,37.4,33.8,87,30.19,10.0,Calm,Calm,-,N/A,,Mostly Cloudy,0,2013-01-06 11:55:00
7:15 AM,37.4,33.8,87,30.19,10.0,Calm,Calm,-,N/A,,Mostly Cloudy,0,2013-01-06 12:15:00
7:35 AM,37.4,33.8,87,30.20,10.0,Calm,Calm,-,N/A,,Overcast,0,2013-01-06 12:35:00
7:55 AM,37.4,33.8,87,30.20,-9999.0,Calm,Calm,-,N/A,,Mostly Cloudy,0,2013-01-06 12:55:00
8:15 AM,37.4,33.8,87,30.20,10.0,Calm,Calm,-,N/A,,Scattered Clouds,0,2013-01-06 13:15:00
8:35 AM,37.4,33.8,87,30.20,10.0,Calm,Calm,-,N/A,,Clear,0,2013-01-06 13:35:00
8:55 AM,41.0,35.6,81,30.20,10.0,South,4.6,-,N/A,,Mostly Cloudy,170,2013-01-06 13:55:00
9:15 AM,41.0,35.6,81,30.20,10.0,SW,3.5,-,N/A,,Overcast,220,2013-01-06 14:15:00
9:35 AM,41.0,35.6,81,30.21,10.0,SSW,3.5,-,N/A,,Overcast,200,2013-01-06 14:35:00
9:55 AM,42.8,35.6,76,30.20,-9999.0,SSW,3.5,-,N/A,,Overcast,200,2013-01-06 14:55:00
10:15 AM,42.8,35.6,76,30.20,10.0,SSW,4.6,-,N/A,,Overcast,200,2013-01-06 15:15:00
10:35 AM,42.8,35.6,76,30.19,10.0,SSW,3.5,-,N/A,,Overcast,210,2013-01-06 15:35:00
10:55 AM,44.6,35.6,71,30.18,10.0,SSW,3.5,-,N/A,,Overcast,200,2013-01-06 15:55:00
11:15 AM,44.6,35.6,71,30.18,10.0,SSW,4.6,-,N/A,,Overcast,200,2013-01-06 16:15:00
11:35 AM,46.4,35.6,66,30.17,10.0,SW,3.5,-,N/A,,Overcast,220,2013-01-06 16:35:00
11:55 AM,46.4,35.6,66,30.15,10.0,SSW,4.6,-,N/A,,Overcast,210,2013-01-06 16:55:00
12:35 PM,46.4,35.6,66,30.12,10.0,SSW,4.6,-,N/A,,Overcast,210,2013-01-06 17:35:00
12:55 PM,48.2,35.6,62,30.12,10.0,SW,4.6,-,N/A,,Overcast,230,2013-01-06 17:55:00
1:15 PM,50.0,35.6,58,30.11,10.0,SW,3.5,-,N/A,,Overcast,230,2013-01-06 18:15:00
1:35 PM,50.0,33.8,54,30.10,10.0,SSW,5.8,-,N/A,,Overcast,210,2013-01-06 18:35:00
1:55 PM,50.0,35.6,58,30.09,10.0,SE,3.5,-,N/A,,Overcast,130,2013-01-06 18:55:00
2:15 PM,50.0,35.6,58,30.09,10.0,South,3.5,-,N/A,,Overcast,180,2013-01-06 19:15:00
2:35 PM,50.0,35.6,58,30.09,10.0,South,4.6,-,N/A,,Overcast,170,2013-01-06 19:35:00
2:55 PM,50.0,35.6,58,30.08,10.0,SSE,4.6,-,N/A,,Overcast,150,2013-01-06 19:55:00
3:15 PM,50.0,35.6,58,30.07,10.0,SSE,4.6,-,N/A,,Scattered Clouds,160,2013-01-06 20:15:00
3:35 PM,50.0,35.6,58,30.08,10.0,SSE,5.8,-,N/A,,Scattered Clouds,150,2013-01-06 20:35:00
4:15 PM,48.2,35.6,62,30.08,10.0,South,4.6,-,N/A,,Mostly Cloudy,190,2013-01-06 21:15:00
4:35 PM,48.2,35.6,62,30.07,10.0,Calm,Calm,-,N/A,,Scattered Clouds,0,2013-01-06 21:35:00
4:55 PM,46.4,35.6,66,30.08,10.0,Calm,Calm,-,N/A,,Clear,0,2013-01-06 21:55:00
5:15 PM,44.6,35.6,71,30.08,10.0,SE,4.6,-,N/A,,Scattered Clouds,140,2013-01-06 22:15:00
5:35 PM,44.6,37.4,76,30.08,10.0,SSE,3.5,-,N/A,,Scattered Clouds,160,2013-01-06 22:35:00
5:55 PM,44.6,37.4,76,30.08,10.0,Calm,Calm,-,N/A,,Clear,0,2013-01-06 22:55:00
6:15 PM,41.0,37.4,87,30.09,-9999.0,Calm,Calm,-,N/A,,Unknown,0,2013-01-06 23:15:00
6:35 PM,41.0,37.4,87,30.10,10.0,Calm,Calm,-,N/A,,Scattered Clouds,0,2013-01-06 23:35:00
6:55 PM,41.0,37.4,87,30.10,10.0,Calm,Calm,-,N/A,,Scattered Clouds,0,2013-01-06 23:55:00
7:15 PM,41.0,35.6,81,30.10,10.0,Calm,Calm,-,N/A,,Clear,0,2013-01-07 00:15:00
7:35 PM,33.8,32.0,93,30.11,10.0,Calm,Calm,-,N/A,,Clear,0,2013-01-07 00:35:00
7:55 PM,32.0,32.0,100,30.12,10.0,Calm,Calm,-,N/A,,Clear,0,2013-01-07 00:55:00
8:15 PM,33.8,33.8,100,30.12,10.0,Calm,Calm,-,N/A,,Clear,0,2013-01-07 01:15:00
8:35 PM,35.6,35.6,100,30.12,10.0,Calm,Calm,-,N/A,,Mostly Cloudy,0,2013-01-07 01:35:00
8:55 PM,35.6,35.6,100,30.13,10.0,Calm,Calm,-,N/A,,Overcast,0,2013-01-07 01:55:00
9:15 PM,37.4,35.6,93,30.14,10.0,Calm,Calm,-,N/A,,Overcast,0,2013-01-07 02:15:00
9:35 PM,41.0,35.6,81,30.14,10.0,West,4.6,-,N/A,,Overcast,280,2013-01-07 02:35:00
9:55 PM,41.0,33.8,76,30.14,10.0,WNW,4.6,-,N/A,,Overcast,290,2013-01-07 02:55:00
10:15 PM,39.2,32.0,75,30.15,10.0,WNW,3.5,-,N/A,,Mostly Cloudy,290,2013-01-07 03:15:00
10:35 PM,35.6,32.0,87,30.15,10.0,Calm,Calm,-,N/A,,Mostly Cloudy,0,2013-01-07 03:35:00
11:35 PM,33.8,32.0,93,30.17,10.0,Calm,Calm,-,N/A,,Mostly Cloudy,0,2013-01-07 04:35:00
11:55 PM,33.8,32.0,93,30.17,10.0,Calm,Calm,-,N/A,,Overcast,0,2013-01-07 04:55:00